User: anonymous   Login
Location: Riverside Cemetery
(38.3047°N, 99.7773°W)
Time: 10:58:00
(UTC+00:00)
Language:

Cosmos 2285 Rocket - Orbit

View from above orbital plane
View from above orbital plane
View from above satellite
View from above satellite

Ground track
Ground track

The orbit data is extracted from the following two-line orbital elements,

1 23190U 94045B   20337.79729739  .00000102  00000-0  13261-3 0  9994
2 23190  74.0271 166.9273 0019783 218.5770 141.3937 13.74095011320677
Epoch (UTC): 02 December 2020 19:08:06
Eccentricity: 0.0019783
inclination: 74.0271°
perigee height: 970 km
apogee height: 999 km
right ascension of ascending node: 166.9273°
argument of perigee: 218.5770°
revolutions per day: 13.74095011
mean anomaly at epoch: 141.3937°
orbit number at epoch: 32067

The dashed part of the orbit path shows where the satellite is in the earth's shadow,  

DLR